Weather History for KAKO - January, 2013

Change the Weather History Date:

Wednesday, January 23, 2013

  Actual Average Record
Temperature  
Mean Temperature 42 °F 29 °F  
Max Temperature 59 °F 40 °F 64 °F (1970)
Min Temperature 24 °F 17 °F -14 °F (1963)
Degree Days  
Heating Degree Days 23    
Month to date heating degree days 869  
Cooling Degree Days 0    
Month to date cooling degree days 0  
Moisture  
Dew Point 9 °F    
Average Humidity 42    
Maximum Humidity 75    
Minimum Humidity 8    
Precipitation  
Precipitation 0.00 in 0.01 in 0.09 in (1948)
Month to date precipitation T 0.20  
Year to date precipitation T 0.20  
Sea Level Pressure  
Sea Level Pressure 30.15 in    
Wind  
Wind Speed 11 mph (South)    
Max Wind Speed 21 mph    
Max Gust Speed 25 mph    
Visibility 10 miles    
Events      
T = Trace of Precipitation, MM = Missing Value Source: NWS Daily Summary

Daily Weather History Graph

Daily Weather History Graph

Search for Another Location

Airport or City:

Trip Planner

Search our weather history database for the weather conditions in past years. The results will help you decide how hot, cold, wet, or windy it might be!

Date:

Astronomy

Jan. 23, 2013 Rise Set
Actual Time 7:08 AM MST 5:01 PM MST
Civil Twilight 6:39 AM MST 5:30 PM MST
Nautical Twilight 6:06 AM MST 6:03 PM MST
Astronomical Twilight 5:34 AM MST 6:35 PM MST
Moon 2:13 PM MST (1/23) 4:22 AM MST (1/23)
Length of Visible Light 10h 51m
Length of Day
9h 52m
Waxing Gibbous, 89% of the Moon is Illuminated
Jan 23
Waxing Gibbous
Jan 26
Full
Feb 3
Last Quarter
Feb 10
New
Feb 17
First Quarter

Hourly Weather History & Observations

Time (MST) Temp. Windchill Dew Point Humidity Pressure Visibility Wind Dir Wind Speed Gust Speed Precip Events Conditions
12:53 AM 33.1 °F 24.9 °F 9.0 °F 37% 30.09 in 10.0 mi WSW 10.4 mph - N/A   Clear
1:53 AM 33.1 °F 23.9 °F 8.1 °F 35% 30.10 in 10.0 mi SW 12.7 mph - N/A   Clear
2:53 AM 35.1 °F 26.9 °F 7.0 °F 31% 30.08 in 10.0 mi WSW 11.5 mph - N/A   Clear
3:53 AM 33.1 °F 23.0 °F 5.0 °F 31% 30.08 in 10.0 mi West 15.0 mph - N/A   Clear
4:53 AM 34.0 °F 24.2 °F 5.0 °F 30% 30.10 in 10.0 mi West 15.0 mph - N/A   Clear
5:53 AM 33.1 °F 24.4 °F 5.0 °F 31% 30.12 in 10.0 mi West 11.5 mph - N/A   Clear
6:53 AM 28.9 °F 21.1 °F 3.9 °F 35% 30.15 in 10.0 mi WSW 8.1 mph - N/A   Clear
7:53 AM 33.1 °F 26.1 °F 3.9 °F 29% 30.14 in 10.0 mi WSW 8.1 mph - N/A   Clear
8:53 AM 42.1 °F 36.6 °F 9.0 °F 26% 30.15 in 10.0 mi WSW 9.2 mph - N/A   Clear
9:53 AM 46.9 °F - 7.0 °F 20% 30.16 in 10.0 mi West 3.5 mph - N/A   Clear
10:53 AM 50.0 °F - 7.0 °F 18% 30.16 in 10.0 mi West 6.9 mph - N/A   Clear
11:53 AM 55.0 °F - -5.1 °F 8% 30.13 in 10.0 mi Calm Calm - N/A   Clear
12:53 PM 55.0 °F - -0.0 °F 11% 30.11 in 10.0 mi ENE 6.9 mph - N/A   Clear
1:53 PM 57.9 °F - 1.0 °F 10% 30.09 in 10.0 mi East 6.9 mph - N/A   Clear
2:53 PM 55.0 °F - 3.9 °F 13% 30.11 in 10.0 mi East 5.8 mph - N/A   Clear
3:53 PM 51.1 °F - 10.9 °F 20% 30.12 in 10.0 mi ESE 8.1 mph - N/A   Clear
4:53 PM 44.1 °F 39.0 °F 10.9 °F 26% 30.15 in 10.0 mi ESE 9.2 mph - N/A   Clear
5:53 PM 37.0 °F 29.3 °F 16.0 °F 42% 30.19 in 10.0 mi ESE 11.5 mph - N/A   Clear
6:53 PM 32.0 °F 23.6 °F 21.0 °F 64% 30.25 in 10.0 mi ESE 10.4 mph - N/A   Clear
7:53 PM 30.0 °F 19.1 °F 19.9 °F 66% 30.24 in 10.0 mi ESE 15.0 mph - N/A   Clear
8:53 PM 27.0 °F 15.6 °F 19.0 °F 72% 30.23 in 10.0 mi ESE 13.8 mph - N/A   Clear
9:53 PM 26.1 °F 12.3 °F 19.0 °F 75% 30.21 in 10.0 mi SE 19.6 mph - N/A   Clear
10:53 PM 26.1 °F 13.1 °F 19.0 °F 75% 30.21 in 10.0 mi SE 17.3 mph - N/A   Clear
11:53 PM 24.1 °F 11.0 °F 18.0 °F 77% 30.17 in 10.0 mi SSE 16.1 mph - N/A   Clear